CAPE
1872 2118 1946 2247 1986 1833 1636 1728 2573 2377 2032 2050 2265 2482 2549 2609 2662 2627 2674 2679 2760 2977 2918 2913 2932 2882 3131 3127 3229 2624 2568 2376 2325 2337 2276 2116 2094 2084 1950 1868 1855 1850
1748 2202 2270 2370 2225 2495 2034 1946 2655 2476 2294 2337 2372 2358 2530 2523 2591 2690 2740 2814 2941 3288 3101 2936 3251 3084 3197 3407 3290 3150 2618 2393 2316 2613 2422 2150 2042 2080 2084 1865 1734 1692
1547 2392 2399 2338 2370 2560 2380 2318 2654 2533 2464 2414 2733 2499 2402 2529 2596 2622 2637 2865 2966 3137 3310 3126 3453 3374 3569 3641 3549 3116 2844 2535 2269 2310 2539 2291 2058 2098 2099 2004 1796 1778
1514 2118 2418 2284 2409 2580 2513 2580 2612 2672 2499 2404 2501 2745 2550 2422 2511 2589 2509 3542 2938 2999 3182 3518 3601 3412 3556 3784 3701 3410 3037 2954 2743 2560 2627 2478 2196 2133 2082 2033 2086 2177
1575 1834 2270 2329 2384 2524 2440 2659 2610 2679 2578 2522 2439 2465 2560 2545 2434 2500 2431 2948 2921 2895 2990 3364 3758 3489 3471 3600 3788 3502 3230 2913 3154 3091 2716 2502 2312 2160 2109 2009 2018 1961
1765 1877 2112 2221 2292 2489 2465 2374 2487 2539 2620 2534 2498 2519 2394 2521 2440 2508 2417 2641 2811 2840 2998 3220 3586 3611 3503 3376 3650 3667 3423 3250 3226 3365 3203 2921 2718 2305 2064 2071 2073 2086
2036 2046 2135 2124 2064 2264 2449 2434 2365 2282 2324 2424 2508 2568 2566 2430 2430 2465 2429 2474 2637 2734 3059 3316 3377 3537 3487 3270 3389 3660 3462 3157 3233 3287 3352 3246 3114 2740 2087 2020 1975 1942
2146 2172 2218 2175 2076 1913 1973 2035 2186 2276 2120 2127 2166 2096 2163 2316 2375 2368 2466 2426 2492 2493 2761 3263 3330 3452 3455 3260 3256 3504 3553 3359 3264 3157 3147 3224 3187 2832 2500 2203 2140 2146
2248 2198 2273 2358 2204 2030 1891 1840 1762 1727 1932 1882 1722 1656 1792 1990 1926 2029 2450 2474 2447 2396 2477 2855 3165 3272 3278 3308 3275 3472 3565 3603 3665 3559 3271 3102 2969 3008 2928 2815 2914 3070
2228 2264 2184 2297 2317 2233 2038 1924 1877 1721 1568 1478 1353 1400 1516 1657 1870 1858 1999 2450 2524 2461 2481 2646 2830 2956 2870 3146 3316 3316 3474 3471 3490 3532 3464 3219 2939 2999 3060 3001 2901 2870
1893 1859 2055 2022 2062 2101 2071 1973 1881 1738 1607 1484 1380 1151 1336 1483 1732 1897 1912 2001 2141 2223 2262 2214 2178 2429 2654 2830 3086 3146 3180 3230 3227 3222 3214 3106 2878 2833 3349 3064 3024 2936
1554 1841 2036 1962 1932 1810 1824 1820 1720 1485 1533 1434 1235 1214 1116 1216 1363 1717 1867 1920 1927 1960 1995 2029 2047 2084 2306 2521 2643 2761 2958 3081 3122 3070 2979 2898 2810 2746 2793 2999 2956 2956
1274 1443 1793 2146 2259 2126 1839 1630 1537 1372 1153 1102 1228 1022 1085 1092 1146 1282 1584 1777 1885 1930 1956 2023 2055 2057 2099 2213 2348 2468 2649 2857 2929 2853 2728 2765 2821 2822 2774 2844 2960 2913
1295 1097 1597 2261 2432 2461 2338 2190 1613 1291 1088 889 815 1067 951 937 980 1089 1220 1406 1620 1783 1887 1987 2070 2065 2062 2074 2107 2228 2392 2546 2620 2586 2509 2473 2608 2744 2760 2766 2808 2895
1368 1420 1450 2003 1981 2221 2371 2358 2145 1591 1120 877 731 511 852 885 818 754 1027 1265 1346 1460 1609 1758 1898 1942 1936 2055 2066 2033 2086 2248 2410 2491 2511 2512 2463 2474 2666 2778 2788 2806
1390 1340 1491 1587 1518 1650 1734 1920 2019 1812 1309 896 693 583 349 361 790 642 372 810 1273 1423 1459 1494 1588 1719 1864 1813 2019 2084 2012 1983 2079 2243 2397 2477 2488 2464 2436 2479 2612 2649
1105 1275 1499 1620 1643 1684 1605 1588 1549 1343 1204 995 820 744 408 490 339 748 650 536 445 1165 1486 1470 1436 1540 1718 1733 1678 1733 1870 2027 2107 2136 2126 2126 2118 2180 2269 2300 2333 2344
1258 1149 1090 1409 1387 1448 1471 1479 1510 1436 1167 1014 1087 1118 1114 1080 607 667 742 658 575 491 841 1332 1482 1422 1492 1621 1643 1566 1510 1640 1578 1647 1788 1938 2026 2065 2077 2050 2084 2177
1075 1144 1258 1430 1573 1713 1619 1410 1093 1394 1618 1580 1516 1563 1355 1176 1078 873 591 658 1018 914 822 811 1145 1369 1397 1432 1531 1544 1491 1482 1576 1548 1492 1531 1637 1747 1860 1945 1976 1924
929 961 1137 1059 1038 983 1053 1192 1288 1154 1808 2021 1946 1875 1545 1278 1135 1257 1199 959 895 1233 1330 1333 940 928 1173 1305 1366 1451 1489 1448 1460 1655 1712 1670 1614 1594 1588 1617 1698 1798
521 708 890 1041 1115 1152 1094 1068 1219 1316 1292 1538 1718 1816 1976 1870 1740 1560 1441 1565 1514 1481 1418 1399 1473 1449 1014 955 1098 1270 1391 1454 1435 1496 1730 1815 1820 1754 1677 1584 1506 1495
446 428 520 631 688 842 1051 1057 1115 1159 1191 1172 1252 1327 1372 1568 1796 1922 2038 2121 2136 2063 1911 1694 1495 1334 1448 1372 1107 1009 1098 1269 1401 1496 1548 1660 1780 1831 1827 1774 1681 1546
511 527 527 542 552 557 674 791 894 978 1006 1000 987 1153 1339 1427 1466 1504 1625 1632 1839 1995 2029 2044 2028 1844 1543 1388 1446 1414 1186 1066 1057 1128 1202 1282 1425 1543 1646 1713 1727 1698
390 457 562 641 678 718 688 688 676 640 689 862 959 1028 1071 1270 1293 1384 1494 1584 1592 1562 1584 1966 2094 2215 2309 2202 1796 1408 1436 1413 1415 1334 1128 931 915 928 1049 1370 1460 1473
160 177 241 289 368 512 648 724 723 748 782 754 693 792 927 957 1060 1248 1373 1452 1496 1516 1538 1529 1661 1864 2030 2163 2269 2179 1889 1563 1401 1427 1415 1438 1408 1329 1119 951 910 1225
0 0 0 4 234 413 293 438 616 686 699 712 713 690 672 828 877 927 1045 1256 1365 1444 1500 1524 1517 1587 1892 1946 2088 2217 2263 2096 1840 1472 1252 1265 1319 1362 1388 1412 1392 1323
Wind_Speed
7 6 5 5 5 5 5 6 7 6 6 6 6 7 7 9 9 7 8 8 8 9 9 10 9 9 9 8 8 8 8 8 8 8 7 8 10 11 12 13 13 11
8 7 7 7 7 7 6 6 7 7 7 6 6 7 8 8 8 7 7 8 8 8 8 8 9 9 9 8 7 7 8 7 8 8 7 7 9 10 11 11 12 12
9 9 8 7 7 7 6 6 7 8 7 7 7 7 7 8 7 7 7 6 6 7 7 7 8 8 8 8 8 7 6 7 7 8 7 7 8 8 10 11 12 12
7 9 9 8 8 8 8 8 8 8 8 8 7 7 7 8 7 6 7 6 6 6 6 7 7 7 8 8 8 8 8 7 7 7 7 8 8 8 9 10 11 13
7 8 10 10 10 10 10 9 8 8 7 7 7 8 8 9 8 8 7 7 6 6 6 6 7 7 7 7 7 8 9 8 9 7 6 7 8 8 9 9 11 13
9 9 10 11 12 12 11 10 9 9 8 8 7 8 8 8 8 8 8 7 7 7 6 6 6 7 6 7 7 7 7 8 9 8 7 7 8 7 8 8 9 11
10 10 9 11 12 12 13 12 11 10 10 9 11 9 9 8 8 8 7 7 8 8 7 7 6 6 7 8 7 7 6 6 7 8 7 8 7 8 8 8 9 10
12 12 10 11 11 11 12 13 13 12 11 12 11 10 10 9 8 8 8 8 8 8 8 7 7 7 7 8 7 7 6 7 6 7 7 7 6 7 7 7 8 8
15 14 12 10 9 11 10 11 12 13 13 12 11 11 10 10 10 10 10 9 8 8 8 8 7 7 8 8 7 7 6 7 7 6 6 6 6 5 5 6 7 7
20 16 13 11 10 10 9 9 9 11 13 12 12 12 11 11 11 12 12 11 10 9 8 8 7 7 7 7 7 7 7 7 8 8 7 6 5 5 5 5 5 6
32 23 14 11 9 9 7 8 7 7 10 10 11 11 11 12 12 13 14 13 12 10 9 8 8 8 7 7 7 7 7 7 7 8 7 7 6 6 6 5 4 4
30 31 25 13 12 11 10 12 12 11 8 8 10 10 10 11 12 13 14 14 13 12 11 10 9 9 8 6 6 7 7 7 7 7 7 7 7 7 7 7 5 4
23 21 17 20 19 15 15 16 17 17 16 13 11 9 10 9 9 11 12 13 13 13 13 12 11 11 10 9 7 7 6 5 5 5 6 6 7 6 7 7 6 6
17 16 14 16 17 18 18 18 17 17 17 18 17 13 11 9 8 8 9 11 11 11 11 12 12 12 11 10 10 9 8 6 5 5 4 5 6 7 7 7 7 7
20 18 15 17 19 19 19 20 19 18 19 19 20 19 17 16 15 12 10 10 10 10 9 10 11 10 11 11 11 10 10 8 7 6 5 4 5 6 7 7 7 7
27 24 21 21 22 21 21 20 20 21 22 21 20 18 17 17 17 16 14 12 12 12 11 10 10 10 9 9 11 12 11 10 9 7 7 6 5 5 6 6 6 7
31 28 26 25 26 26 25 24 23 24 25 25 25 23 20 17 18 18 17 16 13 12 12 12 11 10 6 8 8 9 10 10 9 8 8 7 7 6 5 5 6 7
29 28 29 29 28 26 25 27 29 28 26 25 24 24 23 22 20 18 18 17 16 15 14 13 14 11 6 6 6 6 7 9 8 8 8 8 7 7 6 6 6 6
30 29 30 31 31 31 32 32 29 28 28 26 25 25 26 24 22 22 22 21 19 17 16 15 15 12 11 8 7 5 5 7 11 10 9 8 7 7 7 7 8 8
25 26 28 30 30 32 33 32 30 30 30 29 28 27 25 24 25 25 24 22 20 20 20 21 19 14 13 12 10 8 7 9 11 11 10 10 9 9 9 8 8 9
18 20 23 26 29 30 31 31 31 31 32 31 30 28 26 25 25 26 26 25 24 23 23 23 23 24 16 13 13 12 9 12 13 12 12 12 11 11 10 10 10 10
20 20 20 22 25 29 31 30 29 29 30 30 30 29 29 28 27 27 27 26 25 25 25 25 25 26 25 25 20 16 16 20 18 16 14 14 13 13 12 12 12 12
22 22 22 22 21 24 27 28 27 26 25 26 27 28 29 29 29 31 31 30 29 29 29 28 27 25 23 25 27 29 28 24 23 20 18 15 14 15 15 15 14 13
27 25 24 23 23 22 23 23 24 24 25 25 27 27 27 28 28 30 32 32 32 33 33 32 30 26 22 21 23 28 29 28 25 23 19 17 15 16 17 18 17 12
31 30 28 26 26 23 21 21 21 23 24 26 28 29 28 28 29 30 31 32 33 34 37 37 34 31 25 21 20 21 26 28 27 24 21 19 19 18 19 18 17 16
nan nan nan nan 27 26 24 22 21 20 22 24 28 31 33 32 32 31 31 31 32 34 35 35 35 34 36 33 25 22 23 28 30 27 23 22 23 22 21 21 20 19
Wind_Direction
212 204 211 208 197 198 203 194 183 182 166 161 147 138 129 127 135 136 131 131 132 133 132 132 135 135 133 137 136 136 136 129 134 133 136 136 135 137 138 137 140 134
217 214 208 213 208 207 212 212 201 196 185 177 164 156 145 148 138 141 138 133 137 137 140 138 141 142 141 147 149 146 133 135 125 143 141 138 136 140 139 140 139 143
222 217 222 224 220 220 228 220 220 208 201 188 187 178 164 163 152 148 147 142 139 141 149 148 150 152 153 156 161 157 145 141 130 140 147 139 139 144 143 147 151 148
217 221 225 228 224 228 228 230 225 219 210 202 190 185 182 177 174 162 163 154 156 155 157 162 158 160 165 166 170 161 156 148 142 153 149 147 149 148 145 155 159 160
225 219 221 226 225 226 229 234 237 232 224 214 202 195 192 194 191 182 180 174 175 173 176 173 175 171 176 180 179 167 163 150 153 163 159 151 147 157 150 160 161 161
221 215 218 224 228 231 231 233 236 240 234 227 218 211 201 205 203 196 192 188 187 190 190 192 191 182 191 192 190 180 171 160 155 165 161 156 150 152 156 162 166 165
230 222 214 219 226 231 234 231 232 235 237 235 230 224 220 217 214 209 208 201 200 201 204 208 208 202 203 207 202 191 185 181 173 172 167 162 163 152 158 161 165 167
228 224 218 215 223 229 231 231 231 233 236 237 242 237 241 241 236 228 224 222 215 211 210 212 219 221 219 219 210 202 197 200 192 189 187 181 186 174 162 163 171 173
225 220 217 212 217 222 229 227 230 232 235 244 246 247 249 257 255 253 245 242 234 229 224 217 220 222 224 231 224 217 213 209 211 213 207 201 205 194 188 189 187 185
219 220 212 208 204 211 224 231 234 237 241 247 250 251 261 256 266 269 265 262 260 253 249 240 232 223 222 230 238 232 224 219 220 221 220 221 224 222 219 214 202 197
217 207 212 205 197 199 206 224 235 249 251 257 260 257 260 264 262 269 277 279 280 277 271 263 256 248 236 228 228 232 231 227 229 229 225 227 232 237 241 243 229 224
236 220 198 205 206 196 199 209 215 222 230 244 260 264 260 266 271 270 278 288 291 292 292 289 279 272 269 258 248 240 235 230 231 235 234 233 235 239 246 252 253 248
238 243 218 205 219 224 222 220 220 220 225 227 229 240 259 260 265 274 275 286 294 295 297 298 295 290 286 280 272 265 262 251 241 240 240 241 241 250 256 261 265 263
223 222 231 240 228 221 224 226 223 224 224 222 227 231 229 243 262 275 275 273 280 286 290 289 290 289 288 288 285 286 283 281 275 261 250 241 239 243 251 258 264 263
230 227 225 231 243 243 234 228 226 224 224 227 228 231 237 233 232 235 241 249 253 261 267 268 273 275 273 278 282 284 283 286 284 274 261 241 229 229 235 241 246 251
226 232 233 235 238 241 242 237 228 225 223 225 229 234 236 239 241 239 243 250 245 239 239 248 256 258 268 300 290 277 278 277 273 273 267 256 244 230 226 232 232 235
225 218 225 230 233 235 231 231 230 226 225 223 219 217 222 232 246 248 242 243 251 250 244 237 239 247 287 296 303 307 280 270 272 269 262 261 254 248 237 231 229 226
230 223 221 225 229 233 236 233 230 231 231 226 221 221 221 219 222 236 244 241 239 240 242 241 236 235 263 281 294 300 282 264 256 251 252 253 252 251 242 239 235 233
233 230 226 225 226 231 238 236 229 224 229 229 226 226 223 219 221 223 227 230 231 234 232 235 239 240 240 247 256 270 283 264 242 241 240 240 245 245 246 245 246 243
233 233 231 229 228 233 237 241 238 234 230 230 229 228 224 222 222 223 225 227 229 230 229 227 230 241 262 260 252 243 245 254 240 244 242 239 239 240 241 242 247 251
243 244 240 237 236 233 236 240 239 236 234 230 229 226 225 224 224 226 227 227 227 230 232 230 229 224 231 259 270 267 253 247 236 235 240 243 242 243 245 247 248 253
262 261 253 244 238 236 233 235 237 235 232 230 230 227 226 227 228 229 228 228 231 231 232 235 235 225 227 229 238 243 247 244 238 232 231 234 241 244 246 248 250 254
260 263 261 255 248 241 237 236 237 236 234 233 232 230 231 231 230 229 230 232 233 233 231 232 237 233 231 235 239 243 248 244 241 239 234 230 231 240 245 247 247 249
253 254 257 260 255 253 249 242 241 242 239 238 242 239 238 237 235 233 234 236 236 235 232 231 234 241 243 237 239 256 259 253 251 249 245 243 240 241 244 245 249 250
251 251 251 257 259 259 258 252 246 245 245 246 244 244 242 242 242 240 237 238 238 237 231 232 234 239 251 257 257 263 264 259 259 255 251 249 249 247 249 251 251 254
nan nan nan nan 255 256 259 263 260 252 249 248 248 247 243 242 242 243 240 239 238 237 236 234 234 237 244 247 249 248 259 255 254 253 249 247 246 244 245 249 252 252